H1 CPF 2 NER 2024 12 9 9 344 01 glonass134 H2 1407501 9134 40315 2024 12 9 0 0 0 2024 12 12 23 45 0 900 1 1 0 0 0 1 H9 10 0 60653 0.00000 0 17066596.682 -5889350.816 -17965571.654 10 0 60653 900.00000 0 15547385.361 -4119879.997 -19754095.243 10 0 60653 1800.00000 0 14041276.470 -2088854.123 -21157420.620 10 0 60653 2700.00000 0 12603355.590 167443.234 -22148427.657 10 0 60653 3600.00000 0 11282212.006 2602537.694 -22708083.642 10 0 60653 4500.00000 0 10117968.005 5161468.521 -22825794.994 10 0 60653 5400.00000 0 9140688.864 7782851.698 -22499590.828 10 0 60653 6300.00000 0 8369238.455 10401214.728 -21736136.640 10 0 60653 7200.00000 0 7810626.068 12949505.372 -20550579.822 10 0 60653 8100.00000 0 7459869.033 15361669.941 -18966231.806 10 0 60653 9000.00000 0 7300373.940 17575194.489 -17014094.670 10 0 60653 9900.00000 0 7304817.619 19533504.356 -14732242.759 10 0 60653 10800.00000 0 7436488.373 21188123.971 -12165072.273 10 0 60653 11700.00000 0 7651029.124 22500509.144 -9362434.017 10 0 60653 12600.00000 0 7898507.847 23443477.922 -6378666.351 10 0 60653 13500.00000 0 8125727.482 24002182.817 -3271546.957 10 0 60653 14400.00000 0 8278678.101 24174586.192 -101183.237 10 0 60653 15300.00000 0 8305028.550 23971420.968 3071137.930 10 0 60653 16200.00000 0 8156553.540 23415639.829 6184119.835 10 0 60653 17100.00000 0 7791395.009 22541376.914 9177623.654 10 0 60653 18000.00000 0 7176063.590 21392465.675 11993812.996 10 0 60653 18900.00000 0 6287096.684 20020574.550 14578254.680 10 0 60653 19800.00000 0 5112303.664 18483037.441 16880955.947 10 0 60653 20700.00000 0 3651545.533 16840468.294 18857319.454 10 0 60653 21600.00000 0 1917015.178 15154257.799 20468998.784 10 0 60653 22500.00000 0 -66995.416 13484054.998 21684638.888 10 0 60653 23400.00000 0 -2264833.834 11885337.341 22480487.582 10 0 60653 24300.00000 0 -4630704.000 10407169.346 22840866.350 10 0 60653 25200.00000 0 -7110313.716 9090242.580 22758490.811 10 0 60653 26100.00000 0 -9642887.682 7965278.577 22234633.595 10 0 60653 27000.00000 0 -12163465.304 7051861.744 21279124.955 10 0 60653 27900.00000 0 -14605390.255 6357751.944 19910189.100 10 0 60653 28800.00000 0 -16902889.925 5878706.804 18154117.259 10 0 60653 29700.00000 0 -18993638.288 5598822.721 16044781.502 10 0 60653 30600.00000 0 -20821195.357 5491381.671 13622996.598 10 0 60653 31500.00000 0 -22337220.534 5520169.457 10935740.498 10 0 60653 32400.00000 0 -23503365.846 5641210.515 8035247.333 10 0 60653 33300.00000 0 -24292767.860 5804846.119 4977989.892 10 0 60653 34200.00000 0 -24691073.637 5958067.415 1823571.578 10 0 60653 35100.00000 0 -24696955.777 6047003.031 -1366449.721 10 0 60653 36000.00000 0 -24322093.493 6019453.767 -4529781.433 10 0 60653 36900.00000 0 -23590619.773 5827364.253 -7604633.885 10 0 60653 37800.00000 0 -22538058.009 5429123.935 -10530949.217 10 0 60653 38700.00000 0 -21209793.756 4791597.014 -13251595.259 10 0 60653 39600.00000 0 -19659147.575 3891792.799 -15713498.800 10 0 60653 40500.00000 0 -17945132.185 2718103.760 -17868694.340 10 0 60653 41400.00000 0 -16129990.517 1271057.528 -19675266.581 10 0 60653 42300.00000 0 -14276620.398 -436449.575 -21098167.634 10 0 60653 43200.00000 0 -12445995.767 -2379447.399 -22109893.074 10 0 60653 44100.00000 0 -10694693.724 -4521702.336 -22691004.371 10 0 60653 45000.00000 0 -9072631.427 -6817008.406 -22830488.722 10 0 60653 45900.00000 0 -7621107.006 -9210903.940 -22525950.934 10 0 60653 46800.00000 0 -6371225.042 -11642741.224 -21783635.437 10 0 60653 47700.00000 0 -5342770.305 -14048021.949 -20618279.973 10 0 60653 48600.00000 0 -4543574.084 -16360900.787 -19052805.621 10 0 60653 49500.00000 0 -3969396.498 -18516752.983 -17117850.831 10 0 60653 50400.00000 0 -3604326.572 -20454699.729 -14851159.883 10 0 60653 51300.00000 0 -3421680.284 -22119987.398 -12296838.645 10 0 60653 52200.00000 0 -3385356.337 -23466123.243 -9504492.660 10 0 60653 53100.00000 0 -3451590.735 -24456680.540 -6528264.576 10 0 60653 54000.00000 0 -3571035.082 -25066700.092 -3425789.416 10 0 60653 54900.00000 0 -3691070.587 -25283631.765 -257087.468 10 0 60653 55800.00000 0 -3758260.381 -25107778.636 2916584.484 10 0 60653 56700.00000 0 -3720837.452 -24552226.790 6033902.411 10 0 60653 57600.00000 0 -3531124.307 -23642264.670 9034643.384 10 0 60653 58500.00000 0 -3147783.462 -22414316.679 11860831.772 10 0 60653 59400.00000 0 -2537804.964 -20914435.344 14457842.643 10 0 60653 60300.00000 0 -1678147.859 -19196414.163 16775442.539 10 0 60653 61200.00000 0 -556966.671 -17319598.576 18768748.888 10 0 60653 62100.00000 0 825629.290 -15346484.680 20399090.747 10 0 60653 63000.00000 0 2457317.025 -13340203.874 21634755.192 10 0 60653 63900.00000 0 4313814.364 -11361996.443 22451605.405 10 0 60653 64800.00000 0 6359640.017 -9468777.663 22833558.600 10 0 60653 65700.00000 0 8549350.658 -7710896.548 22772914.048 10 0 60653 66600.00000 0 10829206.800 -6130179.927 22270523.816 10 0 60653 67500.00000 0 13139201.279 -4758343.230 21335801.407 10 0 60653 68400.00000 0 15415368.713 -3615834.697 19986566.171 10 0 60653 69300.00000 0 17592281.839 -2711162.207 18248724.309 10 0 60653 70200.00000 0 19605632.050 -2040732.123 16155790.358 10 0 60653 71100.00000 0 21394786.842 -1589208.177 13748256.274 10 0 60653 72000.00000 0 22905216.818 -1330376.550 11072818.527 10 0 60653 72900.00000 0 24090689.378 -1228481.532 8181476.946 10 0 60653 73800.00000 0 24915135.311 -1239975.714 5130522.134 10 0 60653 74700.00000 0 25354107.680 -1315610.331 1979431.332 10 0 60653 75600.00000 0 25395769.523 -1402776.169 -1210304.964 10 0 60653 76500.00000 0 25041366.871 -1447993.981 -4376401.263 10 0 60653 77400.00000 0 24305165.827 -1399446.454 -7457014.407 10 0 60653 78300.00000 0 23213855.738 -1209441.555 -10391973.506 10 0 60653 79200.00000 0 21805443.802 -836699.961 -13123976.129 10 0 60653 80100.00000 0 20127688.626 -248366.924 -15599725.089 10 0 60653 81000.00000 0 18236140.268 578338.900 -17770981.849 10 0 60653 81900.00000 0 16191871.110 1654911.109 -19595514.673 10 0 60653 82800.00000 0 14058995.004 2980827.999 -21037922.357 10 0 60653 83700.00000 0 11902080.567 4543342.801 -22070317.508 10 0 60653 84600.00000 0 9783568.437 6317800.288 -22672856.727 10 0 60653 85500.00000 0 7761301.230 8268465.691 -22834108.551 10 0 60654 0.00000 0 5886269.476 10349829.934 -22551253.665 10 0 60654 900.00000 0 4200665.687 12508336.636 -21830115.094 10 0 60654 1800.00000 0 2736328.378 14684454.825 -20685020.202 10 0 60654 2700.00000 0 1513635.147 16815013.889 -19138498.541 10 0 60654 3600.00000 0 540890.450 18835700.312 -17220823.326 10 0 60654 4500.00000 0 -185770.634 20683613.412 -14969406.772 10 0 60654 5400.00000 0 -681961.765 22299774.089 -12428062.039 10 0 60654 6300.00000 0 -974128.489 23631483.216 -9646146.725 10 0 60654 7200.00000 0 -1098176.125 24634432.892 -6677604.813 10 0 60654 8100.00000 0 -1097701.917 25274484.288 -3579925.522 10 0 60654 9000.00000 0 -1021906.923 25529039.803 -413038.781 10 0 60654 9900.00000 0 -923275.955 25387953.953 2761832.006 10 0 60654 10800.00000 0 -855123.056 24853946.476 5883338.710 10 0 60654 11700.00000 0 -869105.209 23942501.396 8891177.373 10 0 60654 12600.00000 0 -1012808.043 22681256.739 11727235.990 10 0 60654 13500.00000 0 -1327504.148 21108910.258 14336700.493 10 0 60654 14400.00000 0 -1846177.533 19273686.027 16669099.045 10 0 60654 15300.00000 0 -2591896.837 17231424.572 18679265.864 10 0 60654 16200.00000 0 -3576605.812 15043374.348 20328207.190 10 0 60654 17100.00000 0 -4800382.698 12773774.506 21583853.603 10 0 60654 18000.00000 0 -6251201.155 10487327.469 22421684.697 10 0 60654 18900.00000 0 -7905205.056 8246664.457 22825214.096 10 0 60654 19800.00000 0 -9727488.564 6109907.734 22786324.994 10 0 60654 20700.00000 0 -11673352.059 4128429.774 22305448.727 10 0 60654 21600.00000 0 -13689984.784 2344902.022 21391581.392 10 0 60654 22500.00000 0 -15718507.011 791714.430 20062136.310 10 0 60654 23400.00000 0 -17696288.993 -510167.716 18342632.955 10 0 60654 24300.00000 0 -19559451.641 -1551861.082 16266226.128 10 0 60654 25200.00000 0 -21245445.303 -2336706.961 13873082.296 10 0 60654 26100.00000 0 -22695598.631 -2879892.209 11209613.381 10 0 60654 27000.00000 0 -23857529.793 -3207563.449 8327581.536 10 0 60654 27900.00000 0 -24687317.139 -3355471.354 5283091.617 10 0 60654 28800.00000 0 -25151335.880 -3367202.355 2135491.042 10 0 60654 29700.00000 0 -25227681.118 -3292073.375 -1053800.732 10 0 60654 30600.00000 0 -24907114.977 -3182780.241 -4222508.859 10 0 60654 31500.00000 0 -24193496.023 -3092901.605 -7308740.104 10 0 60654 32400.00000 0 -23103671.614 -3074366.807 -10252213.758 10 0 60654 33300.00000 0 -21666837.200 -3174997.866 -12995460.064 10 0 60654 34200.00000 0 -19923389.886 -3436232.557 -15484960.469 10 0 60654 35100.00000 0 -17923325.530 -3891127.485 -17672205.595 10 0 60654 36000.00000 0 -15724248.316 -4562727.591 -19514648.978 10 0 60654 36900.00000 0 -13389078.198 -5462872.265 -20976537.239 10 0 60654 37800.00000 0 -10983554.183 -6591489.038 -22029600.535 10 0 60654 38700.00000 0 -8573639.434 -7936404.490 -22653590.475 10 0 60654 39600.00000 0 -6222937.683 -9473679.667 -22836656.187 10 0 60654 40500.00000 0 -3990229.036 -11168454.861 -22575552.820 10 0 60654 41400.00000 0 -1927227.335 -12976267.104 -21875680.267 10 0 60654 42300.00000 0 -76651.131 -14844783.946 -20750953.276 10 0 60654 43200.00000 0 1529313.557 -16715879.977 -19223507.316 10 0 60654 44100.00000 0 2870097.484 -18527968.628 -17323247.590 10 0 60654 45000.00000 0 3937337.400 -20218491.623 -15087251.332 10 0 60654 45900.00000 0 4734949.069 -21726462.390 -12559036.011 10 0 60654 46800.00000 0 5278684.317 -22994958.016 -9787708.306 10 0 60654 47700.00000 0 5595193.581 -23973456.820 -6827010.630 10 0 60654 48600.00000 0 5720635.644 -24619925.411 -3734283.617 10 0 60654 49500.00000 0 5698894.636 -24902569.651 -569364.203 10 0 60654 50400.00000 0 5579480.182 -24801177.931 2606560.026 10 0 60654 51300.00000 0 5415199.298 -24308002.032 5732119.077 10 0 60654 52200.00000 0 5259697.644 -23428139.755 8746929.987 10 0 60654 53100.00000 0 5164972.860 -22179403.869 11592746.186 10 0 60654 54000.00000 0 5178963.616 -20591682.749 14214566.048 10 0 60654 54900.00000 0 5343314.812 -18705818.680 16561680.701 10 0 60654 55800.00000 0 5691412.116 -16572049.302 18588642.255 10 0 60654 56700.00000 0 6246768.118 -14248075.316 20256134.966 10 0 60654 57600.00000 0 7021828.127 -11796832.699 21531733.494 10 0 60654 58500.00000 0 8017246.719 -9284059.776 22390534.144 10 0 60654 59400.00000 0 9221667.063 -6775757.955 22815646.990 10 0 60654 60300.00000 0 10612014.670 -4335649.572 22798538.952 10 0 60654 61200.00000 0 12154296.090 -2022736.849 22339220.196 10 0 60654 62100.00000 0 13804872.278 110937.655 21446268.784 10 0 60654 63000.00000 0 15512156.447 2022236.437 20136691.178 10 0 60654 63900.00000 0 17218668.091 3678497.106 18435619.114 10 0 60654 64800.00000 0 18863359.385 5058660.953 16375846.454 10 0 60654 65700.00000 0 20384117.855 6153911.923 13997212.767 10 0 60654 66600.00000 0 21720340.770 6967798.013 11345843.784 10 0 60654 67500.00000 0 22815472.647 7515829.003 8473262.098 10 0 60654 68400.00000 0 23619397.854 7824566.703 5435384.662 10 0 60654 69300.00000 0 24090585.493 7930245.878 2291426.675 10 0 60654 70200.00000 0 24197893.822 7876984.556 -897266.057 10 0 60654 71100.00000 0 23921955.544 7714660.618 -4068432.086 10 0 60654 72000.00000 0 23256083.229 7496546.419 -7160130.914 10 0 60654 72900.00000 0 22206654.838 7276804.079 -10111974.782 10 0 60654 73800.00000 0 20792961.933 7107950.285 -12866329.249 10 0 60654 74700.00000 0 19046526.613 7038400.835 -15369456.833 10 0 60654 75600.00000 0 17009916.322 7110201.489 -17572579.512 10 0 60654 76500.00000 0 14735107.399 7357043.284 -19432838.022 10 0 60654 77400.00000 0 12281467.557 7802647.711 -20914128.482 10 0 60654 78300.00000 0 9713443.501 8459590.734 -21987800.018 10 0 60654 79200.00000 0 7098051.954 9328615.270 -22633200.404 10 0 60654 80100.00000 0 4502280.117 10398460.493 -22838060.225 10 0 60654 81000.00000 0 1990504.544 11646214.027 -22598709.688 10 0 60654 81900.00000 0 -377964.195 13038170.858 -21920125.682 10 0 60654 82800.00000 0 -2551109.802 14531161.420 -20815810.094 10 0 60654 83700.00000 0 -4486120.544 16074291.823 -19307503.627 10 0 60654 84600.00000 0 -6150904.545 17611022.265 -17424742.335 10 0 60654 85500.00000 0 -7525149.932 19081495.967 -15204266.898 10 0 60655 0.00000 0 -8600888.901 20425020.860 -12689297.367 10 0 60655 900.00000 0 -9382546.039 21582601.261 -9928686.737 10 0 60655 1800.00000 0 -9886470.648 22499412.598 -6975973.477 10 0 60655 2700.00000 0 -10139977.338 23127119.205 -3888346.836 10 0 60655 3600.00000 0 -10179935.684 23425937.730 -725547.814 10 0 60655 4500.00000 0 -10050970.237 23366361.990 2451274.844 10 0 60655 5400.00000 0 -9803347.091 22930478.253 5580732.324 10 0 60655 6300.00000 0 -9490635.840 22112816.977 8602365.661 10 0 60655 7200.00000 0 -9167244.764 20920705.894 11457796.634 10 0 60655 8100.00000 0 -8885931.925 19374109.728 14091838.841 10 0 60655 9000.00000 0 -8695395.768 17504962.557 16453548.993 10 0 60655 9900.00000 0 -8638045.461 15356019.447 18497199.498 10 0 60655 10800.00000 0 -8748043.877 12979273.358 20183154.811 10 0 60655 11700.00000 0 -9049705.139 10434000.951 21478635.588 10 0 60655 12600.00000 0 -9556314.312 7784516.046 22358356.461 10 0 60655 13500.00000 0 -10269419.796 5097721.480 22805025.224 10 0 60655 14400.00000 0 -11178629.823 2440558.589 22809693.395 10 0 60655 15300.00000 0 -12261923.920 -122541.805 22371950.406 10 0 60655 16200.00000 0 -13486469.021 -2532102.617 21499956.221 10 0 60655 17100.00000 0 -14809908.933 -4735837.306 20210309.846 10 0 60655 18000.00000 0 -16182075.889 -6690587.439 18527754.137 10 0 60655 18900.00000 0 -17547054.741 -8363879.943 16484720.313 10 0 60655 19800.00000 0 -18845514.901 -9735038.232 14120718.826 10 0 60655 20700.00000 0 -20017212.857 -10795799.601 11481586.531 10 0 60655 21600.00000 0 -21003559.956 -11550411.840 8618603.379 10 0 60655 22500.00000 0 -21750146.322 -12015204.073 5587495.049 10 0 60655 23400.00000 0 -22209112.740 -12217649.316 2447340.942 10 0 60655 24300.00000 0 -22341268.069 -12194958.400 -740590.473 10 0 60655 25200.00000 0 -22117860.165 -11992265.398 -3914054.858 10 0 60655 26100.00000 0 -21521922.927 -11660482.825 -7011068.112 10 0 60655 27000.00000 0 -20549140.265 -11253919.485 -9971138.975 10 0 60655 27900.00000 0 -19208188.830 -10827764.390 -12736471.681 10 0 60655 28800.00000 0 -17520544.030 -10435546.017 -15253112.914 10 0 60655 29700.00000 0 -15519757.281 -10126677.111 -17472018.744 10 0 60655 30600.00000 0 -13250235.359 -9944191.166 -19350019.396 10 0 60655 31500.00000 0 -10765574.164 -9922767.991 -20850662.230 10 0 60655 32400.00000 0 -8126518.123 -10087132.690 -21944916.474 10 0 60655 33300.00000 0 -5398632.028 -10450895.820 -22611726.537 10 0 60655 34200.00000 0 -2649783.833 -11015883.068 -22838404.285 10 0 60655 35100.00000 0 52455.828 -11771981.514 -22620854.191 10 0 60655 36000.00000 0 2643388.910 -12697507.406 -21963628.797 10 0 60655 36900.00000 0 5063633.383 -13760078.235 -20879815.330 10 0 60655 37800.00000 0 7261334.542 -14917950.748 -19390757.548 10 0 60655 38700.00000 0 9194054.263 -16121767.257 -17525619.877 10 0 60655 39600.00000 0 10830262.252 -17316635.852 -15320803.713 10 0 60655 40500.00000 0 12150370.260 -18444456.634 -12819228.305 10 0 60655 41400.00000 0 13147269.420 -19446396.336 -10069490.813 10 0 60655 42300.00000 0 13826351.465 -20265407.932 -7124922.184 10 0 60655 43200.00000 0 14205015.875 -20848690.446 -4042557.078 10 0 60655 44100.00000 0 14311686.032 -21149986.948 -882037.393 10 0 60655 45000.00000 0 14184377.396 -21131625.671 2295530.053 10 0 60655 45900.00000 0 13868878.880 -20766219.960 5428740.531 10 0 60655 46800.00000 0 13416624.169 -20037956.835 8457061.758 10 0 60655 47700.00000 0 12882342.121 -18943420.859 11321986.243 10 0 60655 48600.00000 0 12321584.215 -17491918.953 13968144.859 10 0 60655 49500.00000 0 11788231.802 -15705292.042 16344361.585 10 0 60655 50400.00000 0 11332086.676 -13617220.244 18404630.440 10 0 60655 51300.00000 0 10996645.024 -11272048.781 20108997.010 10 0 60655 52200.00000 0 10817147.418 -8723181.191 21424328.511 10 0 60655 53100.00000 0 10818986.407 -6031104.024 22324958.115 10 0 60655 54000.00000 0 11016538.849 -3261122.293 22793191.226 10 0 60655 54900.00000 0 11412473.008 -480896.930 22819663.549 10 0 60655 55800.00000 0 11997561.134 2242115.936 22403543.108 10 0 60655 56700.00000 0 12751007.617 4843219.597 21552570.845 10 0 60655 57600.00000 0 13641281.453 7262920.510 20282937.200 10 0 60655 58500.00000 0 14627420.717 9449160.222 18618994.828 10 0 60655 59400.00000 0 15660756.604 11359242.516 16592810.825 10 0 60655 60300.00000 0 16686986.491 12961374.812 14243564.861 10 0 60655 61200.00000 0 17648509.952 14235758.307 11616803.070 10 0 60655 62100.00000 0 18486929.621 15175179.993 8763560.733 10 0 60655 63000.00000 0 19145610.881 15785080.473 5739370.045 10 0 60655 63900.00000 0 19572190.825 16083093.842 2603172.233 10 0 60655 64800.00000 0 19720928.372 16098078.635 -583844.066 10 0 60655 65700.00000 0 19554793.612 15868681.056 -3759454.190 10 0 60655 66600.00000 0 19047205.260 15441492.205 -6861632.995 10 0 60655 67500.00000 0 18183340.196 14868878.971 -9829788.186 10 0 60655 68400.00000 0 16960957.560 14206582.606 -12605965.000 10 0 60655 69300.00000 0 15390701.026 13511189.174 -15135996.407 10 0 60655 70200.00000 0 13495865.711 12837581.500 -17370574.481 10 0 60655 71100.00000 0 11311639.376 12236482.729 -19266220.633 10 0 60655 72000.00000 0 8883850.384 11752197.163 -20786134.967 10 0 60655 72900.00000 0 6267275.939 11420644.945 -21900908.125 10 0 60655 73800.00000 0 3523582.639 11267773.856 -22589082.302 10 0 60655 74700.00000 0 718986.663 11308414.766 -22837551.588 10 0 60655 75600.00000 0 -2078267.861 11545627.779 -22641795.414 10 0 60655 76500.00000 0 -4800506.812 11970564.923 -22005942.360 10 0 60655 77400.00000 0 -7383192.366 12562853.136 -20942665.014 10 0 60655 78300.00000 0 -9767351.797 13291479.340 -19472909.794 10 0 60655 79200.00000 0 -11901769.398 14116138.462 -17625468.664 10 0 60655 80100.00000 0 -13744852.576 14988986.096 -15436402.505 10 0 60655 81000.00000 0 -15266097.183 15856721.029 -12948328.385 10 0 60655 81900.00000 0 -16447094.100 16662909.540 -10209585.243 10 0 60655 82800.00000 0 -17282038.173 17350453.735 -7273294.535 10 0 60655 83700.00000 0 -17777721.206 17864100.726 -4196333.958 10 0 60655 84600.00000 0 -17953011.904 18152888.065 -1038243.779 10 0 60655 85500.00000 0 -17837846.574 18172423.841 2139913.744 10 0 60656 0.00000 0 -17471774.328 17886906.923 5276720.418 10 0 60656 900.00000 0 -16902118.240 17270803.397 8311573.986 10 0 60656 1800.00000 0 -16181830.191 16310110.074 11185840.226 10 0 60656 2700.00000 0 -15367128.158 15003151.912 13843970.098 10 0 60656 3600.00000 0 -14515014.540 13360879.932 16234557.614 10 0 60656 4500.00000 0 -13680778.188 11406656.085 18311321.072 10 0 60656 5400.00000 0 -12915583.620 9175532.406 20033989.689 10 0 60656 6300.00000 0 -12264247.333 6713052.229 21369079.528 10 0 60656 7200.00000 0 -11763293.659 4073620.665 22290544.306 10 0 60656 8100.00000 0 -11439371.342 1318509.128 22780288.702 10 0 60656 9000.00000 0 -11308097.601 -1486426.248 22828533.895 10 0 60656 9900.00000 0 -11373379.073 -4273220.341 22434027.339 10 0 60656 10800.00000 0 -11627239.750 -6974368.539 21604091.344 10 0 60656 11700.00000 0 -12050165.117 -9525385.115 20354507.638 10 0 60656 12600.00000 0 -12611950.301 -11867245.167 18709238.037 10 0 60656 13500.00000 0 -13273018.831 -13948608.845 16699984.336 10 0 60656 14400.00000 0 -13986158.447 -15727734.788 14365593.753 10 0 60656 15300.00000 0 -14698602.209 -17174001.872 11751319.572 10 0 60656 16200.00000 0 -15354367.788 -18268974.328 8907949.880 10 0 60656 17100.00000 0 -15896755.951 -19006964.122 5890820.533 10 0 60656 18000.00000 0 -16270901.526 -19395065.735 2758731.486 10 0 60656 18900.00000 0 -16426267.116 -19452661.023 -427211.750 10 0 60656 19800.00000 0 -16318971.544 -19210414.827 -3604807.593 10 0 60656 20700.00000 0 -15913851.748 -18708804.226 -6711993.328 10 0 60656 21600.00000 0 -15186168.038 -17996244.801 -9688079.114 10 0 60656 22500.00000 0 -14122878.073 -17126895.000 -12474954.616 10 0 60656 23400.00000 0 -12723423.685 -16158233.751 -15018242.397 10 0 60656 24300.00000 0 -10999995.979 -15148516.210 -17268373.613 10 0 60656 25200.00000 0 -8977266.865 -14154217.558 -19181563.620 10 0 60656 26100.00000 0 -6691598.403 -13227574.790 -20720667.608 10 0 60656 27000.00000 0 -4189763.728 -12414331.583 -21855899.477 10 0 60656 27900.00000 0 -1527234.128 -11751781.930 -22565400.487 10 0 60656 28800.00000 0 1233894.938 -11267194.702 -22835647.657 10 0 60656 29700.00000 0 4027251.331 -10976684.410 -22661695.521 10 0 60656 30600.00000 0 6784708.697 -10884573.946 -22047248.327 10 0 60656 31500.00000 0 9438978.669 -10983273.918 -21004563.180 10 0 60656 32400.00000 0 11926165.462 -11253681.198 -19554187.895 10 0 60656 33300.00000 0 14188177.711 -11666077.520 -17724540.337 10 0 60656 34200.00000 0 16174898.994 -12181488.168 -15551338.855 10 0 60656 35100.00000 0 17846029.039 -12753441.857 -13076895.959 10 0 60656 36000.00000 0 19172521.624 -13330056.621 -10349289.654 10 0 60656 36900.00000 0 20137562.122 -13856363.336 -7421428.857 10 0 60656 37800.00000 0 20737046.733 -14276769.148 -4350030.997 10 0 60656 38700.00000 0 20979546.034 -14537557.664 -1194531.208 10 0 60656 39600.00000 0 20885756.519 -14589321.596 1984056.385 10 0 60656 40500.00000 0 20487464.720 -14389226.632 5124304.226 10 0 60656 41400.00000 0 19826068.237 -13903012.440 8165542.334 10 0 60656 42300.00000 0 18950715.917 -13106647.613 11049013.437 10 0 60656 43200.00000 0 17916144.750 -11987569.571 13718991.352 10 0 60656 44100.00000 0 16780303.214 -10545457.348 16123842.483 10 0 60656 45000.00000 0 15601859.380 -8792504.177 18217011.328 10 0 60656 45900.00000 0 14437696.673 -6753177.039 19957912.225 10 0 60656 46800.00000 0 13340500.709 -4463471.092 21312711.129 10 0 60656 47700.00000 0 12356537.016 -1969687.421 22254982.937 10 0 60656 48600.00000 0 11523711.853 673218.067 22766231.842 10 0 60656 49500.00000 0 10869997.025 3403649.125 22836264.352 10 0 60656 50400.00000 0 10412285.002 6155666.440 22463406.862 10 0 60656 51300.00000 0 10155723.239 8861474.996 21654562.212 10 0 60656 52200.00000 0 10093557.062 11454000.457 20425102.294 10 0 60656 53100.00000 0 10207489.529 13869448.917 18798596.661 10 0 60656 54000.00000 0 10468545.082 16049744.200 16806380.140 10 0 60656 54900.00000 0 10838402.458 17944741.073 14486965.596 10 0 60656 55800.00000 0 11271142.170 19514121.175 11885311.348 10 0 60656 56700.00000 0 11715335.631 20728891.037 9051955.983 10 0 60656 57600.00000 0 12116387.771 21572417.882 6042036.541 10 0 60656 58500.00000 0 12419033.289 22040958.109 2914209.091 10 0 60656 59400.00000 0 12569879.332 22143654.956 -270506.659 10 0 60656 60300.00000 0 12519884.670 21902004.682 -3449934.916 10 0 60656 61200.00000 0 12226667.676 21348813.705 -6561978.027 10 0 60656 62100.00000 0 11656542.466 20526691.393 -9545851.100 10 0 60656 63000.00000 0 10786194.271 19486143.553 -12343290.533 10 0 60656 63900.00000 0 9603920.750 18283349.117 -14899710.549 10 0 60656 64800.00000 0 8110385.015 16977716.203 -17165283.228 10 0 60656 65700.00000 0 6318847.428 15629323.047 -19095919.487 10 0 60656 66600.00000 0 4254866.009 14296353.885 -20654131.025 10 0 60656 67500.00000 0 1955478.245 13032639.417 -21809756.253 10 0 60656 68400.00000 0 -532100.708 11885406.308 -22540536.588 10 0 60656 69300.00000 0 -3152207.923 10893330.455 -22832532.886 10 0 60656 70200.00000 0 -5842817.418 10084975.023 -22680375.467 10 0 60656 71100.00000 0 -8537891.843 9477677.255 -22087344.642 10 0 60656 72000.00000 0 -11169902.687 9076928.600 -21065282.086 10 0 60656 72900.00000 0 -13672414.103 8876271.521 -19634336.677 10 0 60656 73800.00000 0 -15982623.532 8857714.526 -17822551.434 10 0 60656 74700.00000 0 -18043754.644 8992645.306 -15665301.054 10 0 60656 75600.00000 0 -19807204.876 9243201.235 -13204592.025 10 0 60656 76500.00000 0 -21234360.402 9564037.765 -10488239.667 10 0 60656 77400.00000 0 -22298005.446 9904419.076 -7568938.386 10 0 60656 78300.00000 0 -22983269.792 10210542.434 -4503243.189 10 0 60656 79200.00000 0 -23288077.459 10427998.403 -1350481.780 10 0 60656 80100.00000 0 -23223079.957 10504263.871 1828382.290 10 0 60656 81000.00000 0 -22811078.651 10391123.819 4971914.375 10 0 60656 81900.00000 0 -22085961.523 10046920.900 8019380.014 10 0 60656 82800.00000 0 -21091199.282 9438539.189 10911901.369 10 0 60656 83700.00000 0 -19877963.598 8543039.400 13593577.939 10 0 60656 84600.00000 0 -18502945.416 7348877.119 16012551.348 10 0 60656 85500.00000 0 -17025963.421 5856652.586 18121995.044 99